Total_Precipitation_Accumulation
0.99 1.02 0.93 1.07 1.13 1.13 1.13 1.11 1.02 0.96 0.94 0.81 0.78 0.77 0.69 0.54 0.54 0.58 0.75 0.63 0.73 1.00 1.09 0.99 0.89 0.76 0.68 0.64 0.76 0.89 0.99 0.94 1.01 1.11 1.04 1.03 1.02 0.95 1.00 0.93 0.81 0.81 0.78
0.88 1.05 0.98 0.97 1.05 1.23 1.28 1.21 1.10 1.10 1.07 0.90 0.85 0.91 0.81 0.71 0.70 0.72 0.82 0.69 0.50 0.57 0.83 0.97 0.98 0.89 0.78 0.76 0.79 0.95 1.09 0.98 0.92 0.98 1.02 1.06 1.10 0.96 0.93 0.91 0.81 0.77 0.76
0.82 0.99 0.95 0.86 0.83 0.99 1.17 1.29 1.31 1.24 1.09 0.98 0.91 0.90 0.81 0.77 0.76 0.90 0.90 0.84 0.65 0.43 0.53 0.74 0.87 0.91 0.89 0.92 0.91 0.95 1.04 0.98 0.94 0.96 1.00 0.99 1.02 1.02 0.96 0.96 0.95 0.98 0.91
0.61 0.80 0.88 0.79 0.78 0.95 1.15 1.32 1.41 1.44 1.30 1.23 1.19 1.04 0.90 0.85 0.81 0.90 0.93 0.95 0.93 0.72 0.60 0.54 0.61 0.73 0.85 0.93 1.01 1.00 0.98 0.92 0.88 0.89 0.91 0.86 0.84 0.85 0.84 0.89 0.99 1.00 0.99
0.53 0.73 0.91 0.95 0.95 1.05 1.17 1.22 1.40 1.46 1.50 1.39 1.25 1.09 0.98 0.95 0.86 0.80 0.93 0.97 1.00 0.94 0.82 0.55 0.44 0.47 0.63 0.82 0.96 1.01 1.04 0.93 0.81 0.79 0.72 0.70 0.72 0.73 0.76 0.76 0.85 0.87 0.89
0.65 0.84 1.06 1.15 1.27 1.29 1.33 1.48 1.74 1.73 1.58 1.52 1.40 1.18 0.99 0.95 0.93 0.91 0.90 0.96 1.06 0.99 0.88 0.75 0.60 0.39 0.42 0.61 0.83 0.95 1.04 1.01 0.92 0.90 0.78 0.66 0.62 0.66 0.71 0.64 0.68 0.68 0.70
0.79 1.00 1.21 1.45 1.58 1.46 1.46 1.63 1.88 2.03 1.84 1.67 1.66 1.53 1.31 1.06 0.98 0.99 0.94 1.01 1.09 1.09 1.04 1.02 0.89 0.72 0.54 0.46 0.51 0.70 0.91 1.02 1.04 1.06 1.02 0.89 0.74 0.66 0.67 0.56 0.54 0.56 0.61
0.90 0.95 1.15 1.36 1.43 1.47 1.50 1.59 1.78 2.08 1.99 1.78 1.87 2.16 1.93 1.60 1.13 0.90 0.99 1.04 1.14 1.14 1.05 0.94 0.95 0.88 0.79 0.75 0.44 0.39 0.57 0.86 1.09 1.09 1.11 1.08 0.95 0.73 0.70 0.58 0.53 0.52 0.54
1.19 1.16 1.19 1.34 1.42 1.54 1.55 1.59 1.64 1.85 1.97 1.89 1.91 2.34 2.18 1.94 1.75 1.23 0.96 1.02 1.15 1.23 1.17 1.10 1.04 1.00 0.93 0.93 0.76 0.42 0.35 0.49 0.87 1.09 1.18 1.19 1.04 0.86 0.77 0.67 0.63 0.58 0.55
1.50 1.48 1.48 1.57 1.52 1.50 1.47 1.49 1.50 1.65 1.93 1.98 1.90 1.83 1.79 1.79 2.04 1.73 1.22 1.07 1.11 1.13 1.17 1.11 1.13 1.15 1.17 1.08 0.96 0.67 0.40 0.38 0.64 1.05 1.33 1.31 1.09 0.93 0.83 0.80 0.74 0.71 0.64
2.08 2.00 1.93 1.78 1.61 1.52 1.53 1.56 1.56 1.63 1.71 1.81 1.80 1.74 1.74 1.67 1.52 1.63 1.57 1.32 1.15 1.05 1.09 1.16 1.19 1.21 1.28 1.28 1.18 0.89 0.60 0.41 0.49 0.84 1.21 1.39 1.32 1.12 0.96 0.86 0.79 0.75 0.68
2.03 1.97 1.84 1.62 1.45 1.39 1.45 1.56 1.58 1.62 1.61 1.66 1.64 1.57 1.57 1.55 1.45 1.53 1.49 1.48 1.47 1.13 0.98 1.01 1.09 1.13 1.13 1.27 1.21 1.26 0.93 0.61 0.48 0.62 0.85 1.13 1.34 1.40 1.27 1.13 0.93 0.83 0.75
1.42 1.45 1.46 1.42 1.37 1.30 1.37 1.55 1.62 1.66 1.66 1.63 1.57 1.51 1.54 1.44 1.51 1.68 1.67 1.57 1.50 1.19 0.97 0.85 0.88 0.96 0.96 1.12 1.24 1.42 1.17 0.90 0.63 0.54 0.61 0.76 0.94 1.19 1.41 1.47 1.40 1.23 1.15
1.24 1.25 1.32 1.34 1.32 1.32 1.33 1.40 1.51 1.62 1.65 1.58 1.54 1.62 1.58 1.43 1.51 1.53 1.53 1.69 1.55 1.32 1.07 0.79 0.71 0.75 0.87 0.94 1.14 1.37 1.02 0.95 0.78 0.61 0.55 0.59 0.69 0.78 0.94 1.21 1.49 1.60 1.61
0.93 1.04 1.15 1.21 1.16 1.18 1.22 1.31 1.44 1.49 1.58 1.64 1.64 1.64 1.64 1.57 1.56 1.55 1.64 1.69 1.68 1.45 1.17 0.90 0.73 0.65 0.77 0.83 1.08 1.06 0.91 0.93 0.84 0.71 0.62 0.56 0.57 0.61 0.70 0.77 0.90 1.06 1.23
0.82 0.89 0.86 0.82 0.81 0.87 0.89 0.99 1.16 1.25 1.29 1.38 1.41 1.45 1.49 1.50 1.55 1.55 1.61 1.68 1.65 1.53 1.33 1.08 0.88 0.77 0.83 0.79 0.93 0.91 0.97 1.12 0.95 0.79 0.68 0.61 0.57 0.57 0.58 0.57 0.58 0.57 0.62
0.52 0.60 0.55 0.52 0.58 0.62 0.59 0.68 0.78 0.90 0.99 1.04 1.05 1.10 1.17 1.23 1.32 1.37 1.49 1.56 1.59 1.53 1.28 1.13 0.98 0.88 0.92 0.96 0.97 0.93 0.99 1.01 0.92 0.85 0.72 0.63 0.59 0.56 0.58 0.58 0.57 0.50 0.46
0.22 0.29 0.32 0.32 0.40 0.51 0.52 0.58 0.63 0.65 0.71 0.76 0.80 0.87 0.92 0.98 1.09 1.17 1.24 1.33 1.46 1.49 1.38 1.22 1.08 0.96 0.89 0.93 1.09 1.14 1.12 1.05 1.03 1.10 1.01 0.84 0.74 0.65 0.61 0.61 0.63 0.58 0.50
0.16 0.20 0.23 0.26 0.29 0.39 0.50 0.56 0.58 0.54 0.54 0.52 0.52 0.57 0.67 0.74 0.88 0.97 1.02 1.11 1.25 1.29 1.36 1.26 1.19 1.11 0.96 0.90 1.04 1.06 1.15 1.31 1.22 1.29 1.41 1.23 0.98 0.81 0.71 0.70 0.72 0.67 0.60
0.16 0.15 0.14 0.16 0.24 0.34 0.43 0.51 0.55 0.52 0.49 0.49 0.49 0.50 0.53 0.55 0.62 0.74 0.87 1.05 1.21 1.33 1.37 1.30 1.26 1.22 1.12 1.03 1.10 1.16 1.26 1.36 1.41 1.28 1.32 1.30 1.23 1.10 0.93 0.83 0.84 0.84 0.79
0.12 0.08 0.06 0.08 0.16 0.22 0.26 0.40 0.46 0.45 0.48 0.45 0.47 0.51 0.52 0.49 0.49 0.54 0.55 0.73 0.95 1.18 1.29 1.35 1.36 1.36 1.29 1.21 1.12 1.18 1.30 1.45 1.57 1.57 1.48 1.34 1.30 1.17 1.05 0.96 0.90 0.90 0.91
0.09 0.07 0.05 0.05 0.07 0.08 0.14 0.21 0.30 0.40 0.47 0.50 0.51 0.55 0.52 0.47 0.52 0.51 0.49 0.52 0.62 0.78 0.96 1.09 1.18 1.23 1.26 1.34 1.40 1.40 1.44 1.52 1.60 1.60 1.48 1.51 1.46 1.34 1.17 0.99 0.99 1.00 0.99
0.04 0.04 0.04 0.04 0.04 0.04 0.05 0.08 0.18 0.34 0.48 0.49 0.48 0.62 0.68 0.61 0.60 0.64 0.66 0.60 0.54 0.53 0.68 0.86 0.99 1.04 1.11 1.21 1.42 1.46 1.48 1.51 1.44 1.49 1.36 1.43 1.40 1.28 1.19 1.15 1.15 1.08 1.05
0.02 0.03 0.05 0.07 0.05 0.02 0.02 0.03 0.09 0.24 0.39 0.43 0.44 0.55 0.81 0.85 0.74 0.70 0.75 0.85 0.77 0.61 0.60 0.65 0.80 0.91 0.96 1.12 1.43 1.65 1.62 1.42 1.36 1.42 1.33 1.34 1.30 1.19 1.13 1.11 1.16 1.07 1.02
0.03 0.03 0.04 0.06 0.05 0.04 0.04 0.04 0.08 0.19 0.29 0.33 0.38 0.50 0.66 0.81 0.75 0.71 0.71 0.78 0.82 0.72 0.66 0.67 0.64 0.71 0.83 1.00 1.26 1.52 1.64 1.59 1.43 1.38 1.25 1.15 1.18 1.20 1.23 1.18 1.12 1.10 1.03
0.03 0.03 0.03 0.03 0.03 0.02 0.04 0.05 0.07 0.13 0.17 0.17 0.24 0.41 0.56 0.55 0.52 0.59 0.70 0.81 0.90 0.74 0.64 0.73 0.72 0.74 0.76 0.95 1.27 1.46 1.58 1.58 1.46 1.43 1.32 1.21 1.19 1.22 1.40 1.36 1.19 1.13 1.07